Red Bluff, CA

5:49 AM PST on January 17, 2018 (GMT -0800)
Red Bluff Municipal

Weather History for KRBL - January, 2014

Change the Weather History Date:

Monday, January 20, 2014

  Actual Average Record
Temperature  
Mean Temperature 54 °F -  
Max Temperature 75 °F 57 °F 75 °F (2014)
Min Temperature 33 °F 38 °F 19 °F (1937)
Degree Days  
Heating Degree Days 11    
Growing Degree Days 4 (Base 50)    
Moisture  
Dew Point 22 °F    
Average Humidity 39    
Maximum Humidity 66    
Minimum Humidity 6    
Precipitation  
Precipitation 0.00 in - - ()
Sea Level Pressure  
Sea Level Pressure 30.19 in    
Wind  
Wind Speed 6 mph (NW)    
Max Wind Speed 9 mph    
Max Gust Speed -    
Visibility 10 miles    
Events      
Averages and records for this station are not official NWS values.
T = Trace of Precipitation, MM = Missing Value Source: NWS Daily Summary

Daily Weather History Graph

Daily Weather History Graph

Search for Another Location

Airport or City:

Trip Planner

Search our weather history database for the weather conditions in past years. The results will help you decide how hot, cold, wet, or windy it might be!

Date:

Astronomy

Jan. 20, 2014 Rise Set
Actual Time 7:26 AM PST 5:13 PM PST
Civil Twilight 6:57 AM PST 5:43 PM PST
Nautical Twilight 6:24 AM PST 6:16 PM PST
Astronomical Twilight 5:51 AM PST 6:48 PM PST
Moon 9:54 PM PST (1/20) 9:29 AM PST (1/20)
Length of Visible Light 10h 45m
Length of Day
9h 46m
Waning Gibbous, 82% of the Moon is Illuminated
Jan 20
Waning Gibbous
Jan 23
Last Quarter
Jan 30
New
Feb 6
First Quarter
Feb 14
Full

Hourly Weather History & Observations

Time (PST) Temp. Windchill Dew Point Humidity Pressure Visibility Wind Dir Wind Speed Gust Speed Precip Events Conditions
12:54 AM 42.1 °F 37.1 °F 24.1 °F 49% 30.14 in 10.0 mi NW 8.1 mph - N/A   Clear
1:54 AM 34.0 °F 29.8 °F 23.0 °F 64% 30.15 in 10.0 mi NNW 4.6 mph - N/A   Clear
2:54 AM 35.1 °F 30.1 °F 24.1 °F 64% 30.16 in 10.0 mi NW 5.8 mph - N/A   Clear
3:54 AM 33.1 °F 27.7 °F 23.0 °F 66% 30.17 in 10.0 mi North 5.8 mph - N/A   Clear
4:54 AM 37.9 °F 32.7 °F 26.1 °F 62% 30.18 in 10.0 mi NNW 6.9 mph - N/A   Clear
5:54 AM 36.0 °F 29.6 °F 23.0 °F 59% 30.19 in 10.0 mi NW 8.1 mph - N/A   Clear
6:54 AM 36.0 °F 30.3 °F 23.0 °F 59% 30.20 in 10.0 mi NW 6.9 mph - N/A   Clear
7:54 AM 37.9 °F 32.1 °F 23.0 °F 55% 30.21 in 10.0 mi NW 8.1 mph - N/A   Clear
8:54 AM 46.0 °F 41.4 °F 25.0 °F 44% 30.22 in 10.0 mi NNW 9.2 mph - N/A   Clear
9:54 AM 54.0 °F - 25.0 °F 33% 30.23 in 10.0 mi NNW 8.1 mph - N/A   Clear
10:54 AM 61.0 °F - 24.1 °F 24% 30.23 in 10.0 mi North 8.1 mph - N/A   Clear
11:54 AM 66.0 °F - 23.0 °F 20% 30.20 in 10.0 mi North 6.9 mph - N/A   Clear
12:54 PM 70.0 °F - 19.0 °F 14% 30.17 in 10.0 mi NNW 8.1 mph - N/A   Clear
1:54 PM 73.0 °F - 19.9 °F 14% 30.15 in 10.0 mi Variable 4.6 mph - N/A   Clear
2:54 PM 75.0 °F - 18.0 °F 12% 30.14 in 10.0 mi Calm Calm - N/A   Clear
3:54 PM 75.0 °F - 19.9 °F 13% 30.15 in 10.0 mi Calm Calm - N/A   Clear
4:54 PM 69.1 °F - 23.0 °F 18% 30.15 in 10.0 mi Calm Calm - N/A   Clear
5:54 PM 64.9 °F - 21.0 °F 19% 30.16 in 10.0 mi SW 3.5 mph - N/A   Clear
6:54 PM 52.0 °F - 23.0 °F 32% 30.19 in 10.0 mi Calm Calm - N/A   Clear
7:54 PM 46.9 °F - 23.0 °F 39% 30.21 in 10.0 mi Calm Calm - N/A   Clear
8:54 PM 39.9 °F - 23.0 °F 51% 30.23 in 10.0 mi Calm Calm - N/A   Clear
9:54 PM 39.0 °F 36.8 °F 21.9 °F 50% 30.25 in 10.0 mi WNW 3.5 mph - N/A   Clear
10:54 PM 37.0 °F 32.4 °F 19.9 °F 50% 30.26 in 10.0 mi NW 5.8 mph - N/A   Clear
11:54 PM 36.0 °F 31.1 °F 19.9 °F 52% 30.27 in 10.0 mi NW 5.8 mph - N/A   Clear